Zurück zum Katalog

HULIANWANG DIGUI-54

AktivKommunikationLEO
NORAD 65111·PAYLOAD·🇨🇳 China

Gestartet Aug 4, 2025 von Wenchang Space Launch Site

Loading…

Nächste Überflüge (nächste 24 Stunden)

TLE

AktuellSource: Space-Track

Epoche: Sep 14, 2026, 13:35 UTC

1 65111U 25168F   26257.56633902 -.00000086  00000-0  81950-4 0  9994
2 65111  50.0010   4.7485 0009981   3.7685 356.3261 13.29330486 54583

Verfolge HULIANWANG DIGUI-54 in Echtzeit mit AllMySat

Download on the App Store